Theta_e
357 356 357 358 358 356 357 356 356 355 355 355 354 354 356 358 356 357 357 356 356 359 356 356 359 359 359 360 360 359 358 359 359 358 357 355 355 357 358 358 358 356 357 356 358 357 358 356 355 357 358 355 353 353 353 352 352 353 354 353 352 353 351 346 341 343 347 351 354 355 357 358 356 354 354 354 355 357 358 358 358 356 355 353 351
355 356 357 357 357 356 356 357 357 355 355 355 355 354 355 356 355 356 356 356 355 357 356 357 359 358 359 359 358 359 359 357 359 359 358 356 355 359 360 357 355 356 355 355 357 360 357 354 356 356 357 356 355 354 352 351 350 348 347 353 351 352 355 350 347 343 343 347 350 353 354 358 353 355 353 354 355 358 357 357 358 355 353 351 350
355 356 356 355 355 356 356 356 356 354 354 354 355 354 355 356 356 355 355 356 356 356 356 356 359 358 358 358 357 357 358 358 358 358 358 357 356 357 359 358 357 356 356 355 355 355 355 354 355 356 360 356 355 355 355 353 351 349 348 350 351 353 355 355 348 343 344 345 349 350 351 353 353 354 356 357 358 357 355 355 355 355 355 353 352
355 355 354 354 354 355 355 356 356 354 352 352 353 354 354 354 358 355 356 356 355 356 355 355 358 358 356 357 357 356 357 358 358 358 358 357 357 356 355 357 358 358 357 357 356 355 353 352 353 354 354 353 353 352 353 353 352 351 349 350 348 347 348 352 353 348 346 344 345 348 351 351 352 355 357 358 356 354 354 354 353 352 352 351 350
354 354 354 352 353 353 354 355 354 354 352 352 353 354 353 354 356 355 355 354 355 354 356 357 355 356 356 356 356 355 357 358 357 357 358 358 358 358 357 356 357 358 358 357 364 357 355 354 354 355 355 353 353 351 352 350 350 348 348 351 352 350 352 354 353 353 349 346 346 347 349 350 352 354 355 353 351 350 350 348 348 348 348 350 352
353 353 353 351 351 351 352 353 353 353 352 352 353 353 353 353 355 351 349 350 351 350 348 352 356 355 354 356 357 357 357 358 357 356 358 359 359 358 358 358 357 356 357 358 358 359 358 356 356 356 354 352 351 350 350 350 350 352 353 351 351 351 352 352 353 351 348 347 345 346 345 349 348 347 351 349 348 347 347 347 348 348 347 349 352
351 352 352 351 348 350 350 351 352 352 352 351 353 353 352 352 350 352 354 352 353 352 352 351 350 353 354 360 359 358 358 358 358 356 356 357 357 358 358 357 358 358 357 358 358 358 356 354 354 354 354 352 351 349 348 349 352 350 350 349 351 351 351 347 348 347 347 346 343 344 345 346 346 345 349 350 348 347 343 344 344 346 346 347 350
350 349 350 350 346 348 349 349 350 350 351 351 350 351 352 350 350 351 353 353 349 349 352 351 351 355 358 357 358 358 357 352 357 359 359 358 357 358 357 356 356 357 357 356 357 354 349 348 351 353 353 354 353 351 351 350 350 350 350 350 351 350 349 348 346 345 343 343 341 342 341 341 347 347 349 345 343 342 344 345 343 344 347 347 347
349 349 348 348 347 348 349 350 351 352 351 349 349 348 347 348 349 350 352 351 351 351 351 350 353 353 354 354 356 358 356 358 358 358 361 359 360 357 355 355 355 354 354 356 353 352 349 350 350 351 359 368 370 369 370 364 352 348 348 351 349 347 347 347 347 345 343 342 342 341 341 342 344 343 342 340 340 341 342 344 344 347 347 348 350
349 348 347 346 347 348 348 349 349 350 350 350 348 347 346 347 349 349 348 349 349 350 349 352 351 350 351 353 355 353 351 350 352 351 354 359 358 361 359 357 355 354 354 352 355 357 355 351 353 362 371 374 372 372 370 369 371 362 349 350 350 348 348 346 344 343 342 341 341 341 342 343 343 343 342 343 345 345 346 347 347 348 347 346 347
347 349 346 344 345 346 347 346 347 348 349 350 349 348 347 348 347 347 348 350 351 354 350 349 348 349 351 348 344 342 341 341 339 332 337 348 359 357 357 354 354 354 353 351 350 351 352 352 350 359 364 363 358 361 365 366 365 362 362 364 366 352 346 344 342 342 343 344 343 342 341 341 343 345 345 346 346 346 347 349 348 346 342 340 341
344 346 344 342 342 344 346 346 346 346 348 349 349 347 348 348 348 349 350 351 352 353 351 349 347 348 347 344 341 338 334 331 326 331 336 339 354 356 355 357 356 354 353 353 351 352 352 351 355 359 358 360 354 349 353 363 365 365 362 360 360 361 359 350 346 343 341 341 341 342 342 343 344 345 344 345 347 350 350 349 344 344 343 342 340
341 341 340 341 341 342 344 344 345 344 347 350 350 348 347 348 348 349 349 351 352 350 349 348 345 343 341 339 336 334 331 327 325 327 330 332 334 355 351 353 350 349 348 348 349 350 351 352 350 347 348 356 351 346 345 349 360 362 364 365 365 359 346 344 348 353 349 344 344 344 345 344 343 345 349 350 350 348 346 344 345 344 344 343 344
341 339 339 339 339 340 341 341 342 344 346 349 348 348 347 347 349 350 351 350 349 348 348 345 341 338 336 334 332 330 328 324 322 324 325 328 332 342 351 351 349 350 350 352 353 350 349 350 346 342 340 339 340 342 341 345 350 353 353 353 354 358 358 352 349 346 348 351 346 344 347 348 346 346 350 347 345 345 344 344 346 345 345 345 348
339 338 339 339 339 340 342 341 340 341 342 344 345 345 346 346 347 348 349 348 348 347 347 344 340 337 334 331 329 325 324 320 319 322 322 324 329 352 349 355 351 354 355 354 352 353 350 346 342 338 335 334 339 341 339 341 346 350 348 350 350 352 350 349 347 347 348 350 349 348 349 349 346 344 344 344 345 346 347 347 348 347 348 349 348
339 339 339 340 340 341 342 343 342 341 341 342 343 343 343 344 345 347 348 348 348 348 348 344 338 335 333 330 327 325 325 318 318 318 320 322 332 351 350 353 353 353 351 349 348 348 347 343 339 335 334 333 333 329 333 342 345 345 345 346 348 350 349 352 338 343 347 343 346 349 348 346 344 344 344 342 346 347 350 350 348 346 343 340 339
339 340 340 342 343 343 343 341 340 339 342 346 347 347 346 345 344 346 345 346 346 345 344 343 339 335 333 329 326 324 324 320 315 315 317 320 339 346 351 353 352 349 348 346 344 343 342 340 337 334 333 333 329 321 323 345 341 341 341 343 345 347 341 341 339 339 335 333 333 335 332 332 330 330 332 333 342 346 343 338 337 343 341 338 340
340 341 340 342 343 344 343 342 341 342 345 344 345 345 345 344 343 346 344 344 343 342 342 341 339 337 332 328 327 324 323 321 314 314 317 323 342 347 351 351 349 348 347 346 345 344 346 348 341 333 331 330 322 319 322 339 335 336 337 339 342 341 337 337 339 342 338 339 337 335 335 335 337 339 339 335 337 348 342 338 341 343 340 340 338
338 338 339 341 342 343 343 343 342 342 342 342 342 342 343 343 344 343 343 344 343 343 342 337 335 335 334 333 333 325 323 324 314 313 315 319 334 341 348 348 348 347 344 340 338 336 336 340 340 336 332 327 316 318 321 336 334 335 336 339 337 336 334 332 334 338 340 344 343 341 343 348 347 348 347 345 344 348 345 343 344 341 338 339 340
336 337 338 339 340 341 342 342 342 341 340 340 340 341 343 341 341 341 342 342 341 340 339 337 335 334 334 331 329 326 323 323 321 312 312 315 321 334 335 342 344 345 343 339 336 335 335 334 333 320 319 316 314 313 314 319 330 331 335 336 333 332 332 329 336 340 340 337 333 334 334 334 336 337 334 335 339 342 337 336 336 336 334 332 332
335 334 335 335 336 338 339 339 338 338 338 337 338 338 338 338 339 340 338 337 336 334 333 332 331 331 332 331 329 328 327 324 323 313 312 314 318 326 327 330 335 342 342 342 339 337 336 334 334 326 315 314 312 310 310 314 323 329 331 335 336 332 326 327 333 339 331 330 330 331 330 329 329 330 331 331 334 335 334 330 331 330 329 328 326
332 332 333 334 335 335 334 334 335 334 335 334 333 333 334 336 337 337 336 335 333 332 332 333 330 330 331 331 330 329 332 332 326 318 313 312 315 321 329 332 332 329 328 327 328 328 331 330 333 329 315 312 310 307 307 311 315 329 334 322 314 315 325 335 334 328 327 327 326 327 327 326 324 324 328 328 330 332 327 325 325 327 329 327 326
331 331 331 332 333 332 330 330 329 329 329 330 328 328 330 332 333 334 334 334 334 333 332 332 329 327 328 329 329 328 329 331 330 324 317 311 311 315 319 326 322 330 325 325 325 326 327 324 328 330 314 307 306 307 308 310 327 324 311 311 319 326 334 329 328 325 325 325 325 324 324 325 323 322 325 325 327 326 324 324 324 324 328 329 331
332 331 333 332 333 335 335 334 333 331 330 329 329 327 327 329 331 331 333 334 333 332 332 331 329 328 326 327 327 328 328 327 332 329 324 314 311 311 312 313 318 323 323 321 321 321 319 319 324 313 307 306 308 310 311 321 324 313 314 321 324 328 326 324 322 324 326 323 322 321 321 323 322 322 324 326 326 323 324 324 324 325 325 325 325
334 332 331 330 331 331 333 334 335 334 334 332 330 330 330 331 329 331 332 330 330 331 331 332 329 328 327 326 326 327 328 325 323 329 329 326 317 314 316 317 315 316 320 320 324 321 318 311 309 312 314 314 316 317 323 327 317 317 318 322 329 322 322 321 321 321 321 321 321 321 320 321 321 323 324 324 324 322 323 324 325 325 326 326 325
331 329 330 330 330 333 331 331 331 332 333 334 335 333 333 334 332 331 330 330 330 330 332 333 332 331 328 326 327 328 323 320 319 319 324 325 323 319 317 320 325 325 323 320 320 317 315 317 319 320 323 326 331 333 332 329 326 325 325 327 322 321 320 319 320 319 319 320 322 320 319 319 321 323 324 323 320 319 321 323 322 322 323 322 320
331 328 327 328 328 327 326 325 325 326 326 327 328 330 328 328 329 329 327 327 328 329 332 332 331 332 330 329 325 320 318 317 316 315 315 317 317 318 317 318 322 320 319 317 317 318 325 330 326 321 322 321 323 326 328 328 328 325 325 325 324 322 321 319 318 318 320 319 319 318 318 319 321 321 319 318 318 319 321 323 320 319 322 319 316
325 324 326 327 326 326 329 333 326 322 322 322 320 320 321 322 321 321 321 322 322 323 326 326 326 328 327 322 318 316 315 314 314 313 313 313 313 314 315 315 312 313 313 312 312 319 325 330 327 331 327 323 323 322 322 323 325 323 320 320 320 323 325 327 325 318 317 317 317 317 318 317 316 318 318 316 316 318 319 319 321 318 319 317 313
327 323 324 325 328 331 327 324 322 320 317 315 313 312 314 318 318 316 317 316 321 323 322 322 324 322 321 319 317 317 318 316 317 310 311 305 307 312 312 310 309 310 314 308 316 321 323 325 326 322 321 321 320 319 318 318 319 320 320 318 317 316 316 315 314 314 315 313 313 315 314 314 315 316 316 315 316 317 316 316 317 315 315 313 312
322 322 322 321 323 327 324 321 321 321 318 316 315 314 310 302 304 315 316 314 306 301 313 320 321 318 315 314 315 317 315 317 308 299 298 296 296 296 298 296 297 304 305 305 317 317 320 321 321 319 318 317 317 318 317 316 316 316 317 320 317 315 314 315 314 314 314 313 313 312 311 313 312 314 314 315 315 314 314 315 312 312 310 310 308
321 321 324 321 324 328 322 319 318 316 316 316 316 315 313 312 298 298 306 308 301 296 299 304 309 314 320 313 310 305 305 301 297 297 295 295 294 294 294 294 295 296 298 311 314 315 317 319 319 318 318 317 317 317 317 317 318 317 316 315 315 315 315 314 313 314 313 312 313 312 312 312 313 313 313 314 314 311 311 311 310 309 308 308 307
319 319 319 324 330 326 320 321 321 318 315 315 315 314 312 312 312 301 297 299 300 295 294 297 300 304 308 313 316 310 304 299 295 294 294 294 294 293 293 294 296 296 296 304 316 313 315 316 317 317 317 318 319 320 316 315 315 315 315 315 314 316 313 313 313 313 311 311 311 312 312 312 312 312 312 312 311 309 308 307 306 307 306 306 307
320 319 320 326 327 330 325 323 323 319 318 317 317 314 312 312 311 310 311 299 296 294 294 294 296 298 300 300 302 304 304 299 294 294 294 294 293 293 293 295 296 297 307 313 314 315 315 316 316 317 317 317 316 316 316 315 315 315 314 313 313 311 312 312 312 313 313 313 312 312 312 311 311 311 310 309 308 305 305 304 304 304 304 303 305
320 320 320 322 321 320 321 322 321 319 318 317 318 316 318 316 312 313 313 312 312 306 299 295 294 296 294 295 297 297 295 294 294 294 293 294 294 294 293 300 296 297 306 314 313 314 314 316 317 319 318 319 318 317 316 315 316 314 315 313 311 311 310 310 309 310 310 310 309 308 307 307 308 306 305 304 304 304 303 304 303 302 301 301 302
320 328 329 328 319 319 319 320 319 318 320 323 321 322 323 322 321 319 314 314 314 312 312 312 301 295 302 301 294 293 293 293 294 293 293 293 293 293 301 309 310 311 312 315 316 314 315 317 316 316 317 317 316 316 314 313 313 313 312 312 310 310 310 310 309 308 307 306 305 305 305 305 304 305 304 302 301 301 302 302 302 302 301 301 301
322 321 323 325 321 318 318 318 316 316 315 314 317 322 325 326 323 320 317 318 318 314 313 311 311 306 301 297 293 292 292 292 292 292 292 293 291 296 310 307 309 310 313 313 312 314 313 313 313 312 312 312 312 312 312 312 313 311 310 311 311 309 309 308 308 306 306 304 304 304 303 302 303 303 302 302 301 301 300 301 300 301 301 300 301
317 317 317 317 317 317 316 316 315 316 323 321 316 317 322 321 324 321 321 319 320 318 313 312 311 311 311 315 301 293 292 293 293 293 293 292 290 304 308 309 308 309 312 312 312 311 310 310 310 309 310 309 309 308 309 309 309 310 312 309 309 308 308 308 307 307 303 302 301 302 301 301 301 302 301 300 300 299 300 301 299 300 300 300 300
314 314 314 317 318 318 316 315 317 324 319 316 316 316 320 318 318 321 320 318 322 319 313 312 316 311 311 312 317 310 302 295 295 298 296 295 301 307 307 311 312 310 312 312 311 309 309 309 309 309 308 308 307 307 307 307 308 307 308 308 309 309 310 308 307 304 304 301 300 300 302 300 300 300 301 299 298 298 298 300 298 297 298 299 298
313 317 320 322 321 316 315 318 318 315 314 313 313 315 317 315 315 317 313 315 318 317 317 314 315 313 312 312 310 316 312 309 308 307 307 307 308 306 307 309 311 311 310 309 310 309 307 307 309 309 308 307 307 306 306 306 306 306 306 305 303 303 303 302 302 302 302 300 300 300 299 299 299 299 300 299 298 298 297 297 297 297 296 296 296
314 313 320 322 319 319 320 322 318 316 319 312 310 313 317 318 316 312 311 311 311 313 315 315 316 314 313 312 310 311 309 310 307 307 308 307 307 307 306 307 307 307 307 307 307 306 305 305 305 305 304 305 305 305 305 305 305 305 304 303 301 300 300 300 300 300 299 299 299 299 298 298 298 298 298 299 299 298 297 297 297 298 297 297 297
312 313 321 318 317 315 318 319 316 313 314 316 313 313 313 316 315 316 313 313 314 316 316 314 311 310 312 310 307 307 310 308 307 309 309 310 308 307 306 305 306 306 307 307 306 305 304 303 303 303 303 304 304 304 304 303 304 303 303 303 301 302 300 299 299 299 299 299 298 297 297 297 298 296 296 298 299 297 297 298 297 296 297 297 297
311 310 314 313 314 313 313 315 314 319 316 315 313 313 316 317 315 311 314 314 316 313 310 308 305 306 304 303 300 300 305 307 307 308 307 306 306 307 306 304 303 303 303 303 303 305 304 304 304 303 302 303 303 303 303 302 302 301 300 300 300 300 299 298 299 298 297 297 297 297 296 298 298 297 297 299 295 295 295 295 295 295 295 295 296
315 312 312 313 310 312 312 312 312 309 311 311 312 320 319 314 312 314 314 314 314 311 308 306 305 305 304 303 302 303 304 305 313 306 305 305 303 304 303 302 301 301 302 302 303 302 303 302 302 301 302 301 301 302 301 300 301 299 299 298 298 298 298 298 297 297 296 296 296 297 297 297 297 295 296 297 295 295 294 294 295 294 294 294 294
316 315 315 313 310 310 312 311 311 311 310 314 314 314 317 311 311 311 309 311 312 311 307 306 306 305 304 300 301 303 305 304 303 302 304 304 303 302 301 300 300 301 301 301 301 301 301 301 301 300 300 300 300 301 301 300 300 300 299 299 300 299 297 297 296 295 295 295 296 296 296 297 297 296 296 297 294 293 294 294 294 294 294 294 294
315 314 312 309 308 307 308 311 311 311 314 315 311 309 315 309 308 308 309 308 312 310 308 308 307 307 305 303 304 304 303 303 306 305 302 301 301 300 299 299 299 299 299 300 300 300 300 300 300 300 300 299 299 299 300 299 298 297 297 297 297 297 295 295 295 296 296 295 295 296 296 296 295 294 294 294 295 294 294 293 294 295 295 295 295
315 315 313 310 309 308 308 306 313 311 312 311 309 308 309 306 306 308 309 309 310 310 309 309 307 306 306 304 304 304 301 301 301 302 302 300 300 299 299 299 299 299 299 299 299 300 300 300 299 299 298 298 298 297 297 297 296 296 295 296 297 297 297 298 298 298 296 296 297 297 296 296 295 294 296 294 293 294 293 294 294 295 295 295 295
314 314 315 313 311 310 308 308 308 309 311 311 309 308 307 305 304 308 314 311 308 308 306 305 305 304 304 302 301 301 302 301 300 300 299 299 298 298 297 298 298 297 297 298 298 298 299 299 299 299 299 298 297 297 296 295 295 296 297 295 296 297 297 299 299 298 298 299 298 297 295 295 294 293 295 295 295 294 295 294 294 294 294 295 295
314 313 313 314 313 311 309 308 310 315 311 311 310 310 309 308 307 308 308 308 305 303 302 302 301 301 303 302 302 301 301 300 300 300 299 298 297 297 297 298 298 297 297 296 297 298 298 298 297 297 298 299 300 298 296 295 296 296 296 296 296 295 297 297 297 297 297 298 297 296 294 292 292 292 294 293 293 293 294 293 294 294 295 295 295
314 314 313 312 312 311 310 309 310 310 310 309 310 310 309 308 307 305 306 304 303 302 301 301 300 301 301 301 301 301 301 301 298 297 298 297 297 297 297 299 299 296 296 295 295 296 296 295 298 298 296 296 297 297 298 297 295 296 296 295 297 297 293 294 295 295 293 295 294 292 291 291 291 292 294 294 294 293 294 294 294 295 295 295 295
313 314 314 313 312 311 310 309 309 309 310 310 309 309 308 308 305 305 303 303 301 301 301 301 301 300 301 301 301 300 299 299 297 296 295 296 296 296 297 295 295 294 295 294 296 296 294 295 296 298 297 297 298 299 299 299 297 296 296 295 294 290 291 292 294 294 292 290 289 289 290 291 291 291 291 291 292 292 293 294 295 295 295 295 295
314 313 313 312 311 311 310 309 308 308 307 307 306 306 304 303 303 303 303 301 300 300 301 299 298 298 299 299 301 299 298 297 297 296 296 295 295 296 296 295 296 295 294 295 295 295 295 295 296 297 298 300 300 299 299 299 297 296 296 294 290 287 288 290 292 289 292 291 290 291 292 293 292 291 292 291 292 292 294 295 295 295 295 295 295
Wind_Speed
9 7 7 6 7 7 6 5 6 5 6 6 6 7 6 6 6 6 4 5 5 4 5 5 6 6 6 4 5 4 4 4 4 3 3 4 3 3 2 3 4 4 3 4 3 2 2 2 2 3 2 1 2 2 2 3 1 2 3 3 5 3 4 4 3 6 4 2 3 3 4 4 4 3 5 6 7 7 7 6 6 6 6 5 5
9 8 7 7 7 7 7 6 6 5 7 6 7 6 6 7 6 5 6 6 6 6 5 5 5 6 5 5 4 5 5 4 4 3 4 4 4 3 3 2 3 4 3 3 3 3 2 3 3 4 3 3 3 3 3 3 3 3 3 3 5 5 4 4 5 3 5 3 3 3 3 2 3 4 4 6 8 7 9 8 7 5 6 6 6
9 7 7 7 7 7 7 6 5 6 7 7 7 7 6 6 6 6 7 6 6 6 6 6 6 6 5 5 5 5 5 5 4 4 5 5 5 4 3 3 3 3 3 3 3 3 3 3 4 4 3 3 3 4 3 4 3 3 4 2 3 4 4 5 3 3 4 4 3 2 2 2 2 5 6 5 5 4 6 7 7 7 5 5 5
9 8 7 7 8 7 7 6 7 6 6 6 7 6 6 5 5 6 6 6 7 6 6 6 6 6 6 6 6 5 5 5 5 5 6 5 5 5 4 3 3 4 4 4 4 4 4 3 4 4 3 3 4 4 5 4 5 4 3 2 1 2 3 3 4 4 2 2 3 2 2 3 4 4 5 5 5 6 5 6 5 5 5 5 4
9 9 8 7 8 8 8 8 7 7 7 6 7 7 6 6 5 6 2 4 4 1 1 3 3 5 7 6 6 6 7 7 6 5 5 5 6 6 4 4 4 4 5 5 5 5 4 4 5 4 3 3 3 3 4 4 4 3 5 1 1 2 3 3 4 4 3 4 3 3 2 2 3 4 3 4 6 5 5 4 3 4 5 4 4
9 9 10 8 7 8 8 8 8 8 7 7 8 8 7 6 4 9 5 6 2 5 3 8 2 3 3 4 4 6 7 7 7 6 5 6 6 5 5 4 5 5 5 5 6 4 4 4 4 4 3 3 4 4 3 3 3 3 3 3 4 3 3 2 0 1 2 3 3 4 2 3 3 3 4 3 4 5 5 5 4 3 4 6 6
8 10 10 9 7 8 8 8 8 8 8 7 7 7 7 4 8 5 5 6 5 3 4 4 5 6 4 0 2 2 4 6 6 5 4 4 5 5 5 4 3 4 4 5 4 4 3 5 5 4 5 4 4 4 4 4 4 4 5 4 3 3 3 2 1 2 2 1 2 2 3 3 2 4 6 3 3 2 3 5 5 4 3 3 6
8 8 8 9 8 9 7 6 8 8 7 6 6 6 6 8 8 6 4 7 7 6 7 6 7 8 5 3 2 1 4 7 4 3 4 4 4 4 5 5 4 3 3 3 1 6 9 7 10 8 5 5 4 4 3 4 3 4 4 3 2 2 2 1 0 1 1 1 2 2 2 2 5 3 3 4 5 4 1 1 5 6 7 3 2
8 7 6 6 6 6 5 4 3 3 2 3 3 3 3 8 11 9 8 6 5 6 6 7 7 5 4 4 0 3 6 6 1 2 3 2 3 3 4 4 4 4 3 2 6 6 4 4 6 6 5 6 5 2 3 5 4 5 4 1 1 1 1 1 2 1 1 1 4 2 2 5 5 4 7 6 5 5 4 1 2 4 5 6 5
7 6 7 6 7 6 7 5 5 4 5 4 3 3 5 7 9 8 8 7 6 5 6 7 6 5 3 1 2 3 2 0 2 5 3 1 2 2 3 3 4 4 3 3 2 2 4 5 5 11 8 6 8 7 7 6 3 5 5 5 4 2 2 2 2 1 2 3 4 3 4 5 6 5 4 4 5 4 5 4 5 6 5 5 5
8 7 5 1 2 7 7 7 6 6 5 4 4 5 6 6 6 5 5 5 4 4 6 8 7 6 6 5 5 3 2 1 5 3 1 3 1 2 3 3 3 4 2 1 2 3 2 5 4 1 4 5 4 7 7 8 7 5 4 4 3 1 1 2 3 2 2 3 3 2 3 5 6 4 4 6 5 5 4 4 5 4 4 5 8
3 5 6 4 2 1 6 7 6 7 5 5 3 3 5 6 7 6 6 5 4 3 4 5 4 5 6 6 5 3 2 5 6 6 5 3 2 2 2 3 3 3 2 3 3 3 4 2 2 2 3 4 3 5 6 8 7 4 3 2 2 2 3 3 3 2 2 3 4 4 3 4 5 4 5 4 5 6 6 5 3 3 4 4 4
2 2 6 5 4 5 7 3 5 5 5 6 4 4 4 5 5 5 5 4 4 4 4 5 5 5 6 6 5 3 3 5 6 6 6 6 6 3 3 2 3 3 3 3 3 4 4 4 4 3 2 7 5 4 3 4 6 7 6 5 4 2 5 7 6 4 2 2 3 4 3 2 3 3 3 5 5 5 5 5 4 4 3 5 5
7 6 6 5 4 5 8 7 8 1 4 5 6 5 5 5 5 4 4 3 5 5 5 6 6 6 6 6 5 3 3 5 5 5 4 5 4 3 2 2 3 4 3 3 3 3 3 5 4 3 2 3 3 5 4 4 4 4 4 4 4 5 6 6 6 4 1 2 2 2 2 1 2 3 3 3 2 3 4 4 4 4 4 5 5
5 6 6 5 3 5 8 9 3 4 2 3 4 6 6 6 5 5 5 4 4 5 6 6 5 5 5 5 5 3 2 6 5 4 4 3 5 2 1 1 4 4 3 2 3 4 5 5 4 3 2 3 4 5 4 4 3 3 3 3 3 3 4 6 5 5 4 3 1 2 3 1 0 1 2 2 2 2 3 4 3 3 5 5 4
5 5 6 5 5 5 7 8 8 4 3 4 5 5 4 5 6 6 6 5 4 5 5 5 5 5 4 5 5 4 2 7 7 7 6 5 4 1 2 5 5 4 4 3 4 4 4 5 4 4 2 3 6 9 6 4 2 3 2 2 2 2 4 2 2 4 3 3 1 1 1 0 1 1 2 2 3 2 3 2 1 3 5 6 6
6 5 5 4 4 5 6 6 4 3 2 5 6 6 6 5 4 4 6 6 6 5 5 5 4 5 4 4 5 4 3 6 8 7 7 7 2 2 4 5 5 5 5 4 4 4 4 3 4 4 3 3 5 7 7 6 3 3 3 3 3 2 4 5 6 6 7 6 3 3 3 3 4 2 6 5 4 4 4 6 6 5 5 6 5
5 5 4 4 6 7 7 7 5 1 2 5 5 5 5 4 4 5 6 7 6 6 6 6 5 5 5 4 2 4 3 6 8 7 6 6 3 2 4 5 5 6 5 3 3 3 4 9 6 3 3 2 4 5 7 4 3 3 3 3 3 3 4 5 4 5 7 6 7 7 7 7 8 4 6 8 8 6 5 6 5 4 5 5 6
5 5 4 4 5 7 8 8 7 3 4 4 5 5 4 5 5 5 6 6 7 6 6 7 6 5 4 4 7 6 4 5 9 9 9 9 4 2 3 5 6 5 5 5 4 5 4 5 7 4 3 2 2 4 6 5 3 3 2 2 3 3 3 4 5 6 6 6 7 7 8 8 6 6 8 13 13 10 6 6 6 5 6 5 6
4 4 5 5 6 6 5 7 7 6 5 3 3 5 5 5 6 6 6 5 6 6 6 5 6 5 4 4 4 4 5 5 7 11 11 12 10 4 4 2 4 5 5 6 5 4 3 2 3 4 4 3 3 3 3 4 2 2 1 2 2 2 3 4 3 3 4 6 6 6 7 6 7 7 8 8 8 8 8 8 7 6 6 6 5
6 6 6 6 6 6 5 6 7 7 6 6 5 4 3 6 6 7 7 6 6 6 6 6 6 5 4 4 5 5 4 6 8 12 13 13 13 9 6 6 4 4 4 5 4 3 2 2 2 5 6 6 5 4 2 2 2 0 0 0 1 2 2 2 4 8 6 5 6 6 7 6 7 6 7 7 7 7 7 7 6 5 5 5 5
6 7 7 6 6 6 6 5 6 7 6 7 7 6 4 5 6 6 6 7 7 6 5 5 5 5 4 3 3 4 6 10 6 11 12 13 13 13 9 7 7 8 7 7 6 7 7 7 5 5 9 8 8 7 5 3 3 1 0 2 3 2 1 1 4 5 5 5 6 6 7 7 6 6 6 6 6 6 6 6 6 5 4 3 3
7 7 7 6 6 6 6 7 6 5 6 6 8 7 6 7 8 7 7 5 5 5 6 5 5 5 4 4 3 4 5 6 10 8 11 13 12 12 11 7 9 7 6 4 4 2 3 4 5 8 9 9 8 8 6 7 3 2 4 5 6 7 7 5 5 5 5 5 5 6 5 5 5 6 5 5 5 5 5 5 5 6 6 6 5
6 6 5 5 5 5 6 5 5 4 5 6 7 7 7 6 6 7 6 5 4 4 4 4 5 5 5 4 4 4 4 5 7 10 9 12 12 12 11 10 8 4 3 3 2 2 3 3 4 9 9 9 9 8 7 6 4 7 9 12 12 9 6 6 6 5 5 6 7 6 6 6 6 6 5 4 5 4 5 4 6 5 6 6 6
5 5 4 4 4 4 4 4 4 3 3 4 5 5 6 5 5 4 5 5 4 4 5 4 4 4 4 4 3 3 4 5 4 7 10 10 11 11 10 10 8 6 5 4 4 4 5 8 8 7 6 6 6 6 4 8 15 16 15 13 11 7 7 6 6 6 8 7 6 6 6 6 5 4 3 3 3 4 4 5 5 5 5 5 5
4 4 4 4 3 3 4 4 4 3 4 3 3 3 4 4 4 2 2 3 4 5 5 4 5 4 4 4 3 3 4 4 5 5 5 7 7 9 8 8 8 6 4 1 4 6 7 8 7 8 7 6 4 5 6 9 14 14 14 12 7 6 6 6 6 7 6 5 5 5 5 5 5 5 4 5 5 6 6 5 5 5 5 6 6
3 3 3 3 3 3 4 3 3 4 4 4 4 4 4 5 4 4 4 4 3 3 3 4 5 5 6 4 4 4 3 3 4 4 5 5 5 5 6 6 8 7 7 6 7 6 7 6 5 4 3 10 12 11 11 10 10 8 7 6 5 5 5 6 6 6 5 5 4 4 4 4 4 5 6 6 6 6 6 5 5 5 5 5 4
5 4 4 3 3 3 4 7 6 5 5 5 5 5 5 4 5 4 4 4 6 5 5 4 5 5 6 5 4 4 3 3 3 3 4 4 4 4 4 3 4 4 5 6 5 5 5 5 5 6 6 7 7 7 7 7 7 6 6 6 5 6 7 9 8 4 3 3 3 2 4 4 5 5 5 6 6 6 6 6 6 6 6 5 5
6 5 4 4 3 3 5 4 5 6 5 6 5 5 4 3 4 4 1 2 2 6 6 5 4 4 5 6 6 4 3 3 1 2 2 2 2 3 4 4 4 4 5 7 5 4 5 6 6 6 6 7 6 6 6 6 6 5 6 5 5 5 5 5 6 5 4 4 5 4 4 4 5 5 4 5 6 6 6 7 7 6 6 6 6
4 4 4 4 3 5 5 4 5 5 6 6 6 6 8 8 6 4 3 8 10 8 1 4 5 6 6 3 2 2 4 3 5 5 3 1 2 4 3 3 3 4 7 10 2 4 5 5 5 5 5 6 6 5 5 5 6 6 5 4 4 5 5 5 4 3 3 3 3 4 4 4 5 5 5 5 5 6 7 7 6 6 6 6 6
3 3 3 3 4 5 5 5 5 5 5 5 5 6 4 6 10 11 10 9 9 10 10 8 7 4 6 4 3 8 8 8 6 3 3 2 2 3 4 4 4 6 7 5 4 5 4 5 4 4 4 5 5 5 4 5 5 5 5 4 5 4 3 4 2 2 3 3 4 4 4 4 5 5 5 5 5 6 6 6 6 6 6 6 6
5 3 3 3 5 4 5 5 5 5 4 4 5 6 6 6 4 7 9 9 9 9 9 8 6 7 8 9 6 2 2 0 4 4 1 1 2 3 5 3 4 4 7 2 3 4 3 3 4 1 3 4 3 3 4 5 4 5 4 5 4 3 3 2 0 2 3 3 4 4 5 5 5 5 6 6 6 6 6 6 6 6 6 5 6
5 4 3 4 5 6 5 5 5 6 6 5 4 4 6 5 6 2 5 6 7 8 9 9 8 8 8 6 4 4 5 5 4 2 3 4 5 4 5 3 3 4 2 4 4 3 2 2 2 2 1 4 3 5 5 5 5 4 5 4 3 4 5 4 3 6 6 6 6 7 6 6 6 6 6 6 6 6 5 6 5 5 5 6 5
6 5 4 5 5 4 4 5 4 4 5 4 5 4 4 5 5 5 5 2 2 3 5 7 7 6 7 4 5 8 8 6 4 2 2 3 5 6 5 3 3 4 4 3 3 3 2 2 3 2 2 2 5 5 5 5 5 5 4 5 5 5 4 5 7 6 6 7 7 6 7 7 6 6 6 5 5 5 6 5 6 6 6 6 6
4 6 9 6 5 5 4 4 4 4 3 3 3 3 4 3 4 4 5 5 5 5 3 1 3 6 2 1 4 6 6 5 4 3 2 2 4 7 3 5 5 5 6 6 4 4 4 4 4 5 5 5 4 5 5 4 5 4 4 4 4 5 5 6 6 6 6 6 7 6 5 5 5 5 5 5 5 5 5 5 5 5 5 6 6
3 3 4 5 4 4 5 4 4 3 3 3 2 2 2 3 4 5 4 3 4 4 3 2 1 1 2 2 5 4 5 4 4 4 5 5 6 6 6 5 5 4 3 4 5 5 5 6 6 6 5 5 5 5 4 5 4 4 3 4 5 5 5 5 6 6 6 6 5 4 5 5 5 4 4 5 5 5 5 5 5 5 6 6 7
4 3 4 3 3 4 3 4 3 3 3 1 2 2 1 1 2 3 3 4 3 3 5 4 3 2 1 1 4 3 2 3 3 3 3 3 3 2 3 1 1 0 3 3 4 5 6 6 5 5 5 5 5 5 5 5 4 4 4 5 5 5 5 5 6 5 5 5 4 4 4 4 4 4 4 4 4 4 4 5 5 5 6 8 8
3 4 3 3 3 4 4 4 4 4 2 2 1 1 1 0 1 2 3 3 4 4 4 4 4 5 6 5 6 3 2 2 3 3 2 2 0 3 4 1 1 3 5 4 3 5 6 6 6 6 5 5 5 5 4 4 3 4 5 5 6 5 8 7 7 5 5 5 4 4 4 4 4 4 3 4 4 4 4 4 5 5 5 6 5
4 5 7 8 6 6 6 4 3 3 3 1 1 1 1 1 1 1 1 1 3 5 5 5 6 6 6 5 4 4 5 1 1 0 1 2 3 3 4 6 6 6 5 5 5 5 6 6 6 6 6 6 6 5 5 5 5 5 5 5 5 5 6 5 5 5 5 5 4 4 4 4 4 5 4 4 4 4 4 4 5 5 5 5 5
5 4 6 9 5 5 4 3 3 3 3 3 3 2 1 1 1 1 1 1 3 4 5 5 5 5 5 4 3 4 3 3 2 1 1 1 2 3 5 6 6 6 5 5 6 6 6 6 6 6 6 6 5 5 5 5 5 5 5 5 5 5 5 5 5 5 5 4 5 4 4 4 4 4 3 4 4 4 4 5 5 5 5 5 6
4 3 3 4 4 4 4 3 4 4 4 3 3 3 3 2 2 1 2 2 1 3 4 4 3 3 5 6 8 6 4 4 3 1 0 1 3 5 5 5 5 5 5 5 6 6 6 6 6 5 5 5 5 5 4 5 5 5 5 5 5 5 5 5 4 5 4 4 4 3 2 2 2 3 4 3 4 4 4 5 5 5 6 6 6
5 4 4 3 3 4 4 4 4 3 4 3 3 3 3 3 3 4 2 2 3 4 5 3 3 3 4 9 9 9 5 2 1 2 3 5 6 6 6 6 6 5 6 6 5 6 6 6 5 5 5 4 5 4 4 4 4 5 5 4 4 4 4 4 4 3 3 2 2 2 2 3 3 3 4 5 4 4 5 5 5 6 6 6 6
6 5 5 3 4 5 5 4 3 3 3 4 4 4 3 3 3 2 2 3 5 5 6 5 4 3 4 4 4 3 2 3 4 4 5 6 6 6 6 6 5 5 5 5 4 5 6 6 5 4 4 4 3 3 3 3 5 5 5 4 4 4 4 4 3 3 3 3 2 2 2 2 3 3 4 4 4 4 5 5 6 6 5 6 5
2 3 4 4 5 3 3 3 4 4 3 4 4 3 3 3 3 3 3 4 5 5 6 6 6 5 3 2 3 3 5 6 6 6 6 6 6 6 5 5 5 5 6 5 5 5 5 5 4 3 3 3 3 3 3 2 3 4 5 5 3 3 4 4 3 2 1 1 1 2 2 2 3 3 4 4 4 5 5 5 6 6 6 5 5
5 6 6 5 5 5 5 4 3 3 3 3 4 4 3 3 3 3 3 3 4 5 6 6 5 5 4 4 4 6 6 6 5 6 6 6 6 5 5 5 5 5 5 5 4 4 4 4 4 3 3 3 3 3 3 4 3 3 3 4 4 4 3 3 4 2 1 0 1 2 2 2 3 3 3 3 4 4 5 5 5 7 6 5 5
4 5 6 6 6 6 6 6 5 4 4 5 6 5 4 4 5 5 4 3 4 6 6 6 6 5 4 4 5 5 6 7 7 6 6 6 6 6 5 5 5 4 5 4 4 3 3 3 3 3 2 2 3 4 4 3 3 3 3 3 3 3 3 3 2 1 0 0 0 1 2 2 3 3 6 5 4 5 5 5 5 5 6 7 8
5 4 6 6 7 6 6 6 6 6 5 6 5 5 5 6 5 4 3 5 6 5 6 6 6 6 5 6 6 6 6 7 6 6 6 6 6 6 5 5 5 5 4 3 3 3 2 1 1 1 1 1 3 4 4 3 4 4 3 2 2 2 2 2 1 1 0 1 1 1 1 2 3 3 5 5 4 5 6 6 7 7 7 8 8
6 5 5 6 7 7 8 7 7 7 6 6 6 6 6 6 5 3 5 5 7 6 6 6 6 6 6 6 6 6 6 6 6 6 6 6 6 6 4 4 5 4 3 3 3 2 1 1 1 0 1 2 2 3 4 3 3 3 3 2 2 2 2 3 1 0 0 0 0 1 1 3 3 4 5 5 5 5 5 6 7 7 7 7 7
5 6 6 5 6 7 7 8 8 7 5 4 6 7 7 6 7 6 6 6 7 6 7 7 7 6 7 7 7 7 6 6 7 6 6 6 5 5 5 4 4 4 3 3 1 0 1 2 1 2 3 2 2 3 5 5 4 4 3 3 2 4 5 4 2 2 1 0 1 1 2 2 3 4 5 5 5 5 5 6 7 7 7 7 8
4 5 6 6 6 5 5 6 6 6 7 7 7 7 7 6 6 6 6 7 7 6 7 7 7 7 7 7 6 7 7 7 6 6 6 6 6 5 5 4 4 3 3 2 1 0 2 1 2 1 1 2 1 2 3 4 4 4 4 4 5 6 6 6 5 4 3 2 2 2 3 4 4 4 4 5 5 5 6 7 7 8 8 8 8
6 6 6 5 5 5 6 6 6 5 5 6 7 7 6 6 6 7 7 8 8 7 7 6 6 6 6 7 6 6 6 5 6 6 6 6 4 5 4 4 3 1 0 0 0 1 2 2 1 0 0 0 1 2 2 3 4 5 6 8 8 8 8 7 5 6 7 5 3 3 3 3 3 4 4 4 4 5 7 8 8 7 6 6 8
Wind_Direction
177 184 179 184 175 185 187 186 189 186 189 189 187 192 193 193 194 198 193 203 191 186 188 188 179 180 181 189 191 198 202 206 216 196 193 215 217 209 228 197 209 231 237 274 290 305 303 288 270 270 228 328 278 264 269 272 260 242 241 219 229 201 180 181 212 269 292 248 240 262 295 315 306 284 313 312 316 320 323 313 311 309 305 301 305
179 179 182 182 178 186 188 187 190 184 195 192 197 197 200 197 194 192 195 205 193 191 186 188 190 181 184 189 189 196 204 204 201 190 202 211 232 218 237 225 208 222 214 241 278 289 273 287 305 297 289 287 282 288 278 283 274 290 285 223 233 221 198 178 223 231 274 311 308 294 286 249 272 293 310 319 317 324 322 319 314 306 302 313 322
176 171 178 179 185 187 188 188 183 184 194 193 196 198 202 203 191 191 198 200 199 195 189 186 186 190 190 194 196 194 203 207 200 192 202 206 217 228 220 215 213 220 223 233 239 247 262 252 264 269 280 281 280 279 286 276 255 248 274 238 226 232 205 201 176 232 265 277 252 287 270 312 280 296 315 308 303 303 309 312 316 319 323 323 319
173 172 173 181 188 188 191 195 190 187 195 197 201 200 201 202 198 195 197 192 195 201 195 187 183 189 196 199 200 204 204 206 201 199 202 207 214 223 231 225 220 220 220 231 245 238 237 254 262 259 255 260 273 279 277 269 266 257 247 260 192 275 243 209 211 213 235 273 291 247 291 323 297 295 297 305 316 323 312 307 316 314 315 326 326
171 176 176 174 188 187 193 192 194 196 200 200 207 208 207 205 201 205 179 27 347 324 187 137 166 193 197 198 200 207 205 202 199 200 207 208 213 219 220 218 219 224 226 229 233 231 238 228 243 244 229 228 259 251 257 270 267 265 263 228 191 253 289 239 221 206 210 254 295 287 276 287 264 293 294 328 328 327 322 323 312 310 318 318 323
173 175 182 178 183 186 190 193 193 196 202 203 208 210 211 208 175 75 91 136 170 105 358 332 334 189 201 201 205 199 202 198 194 196 198 205 213 225 223 217 225 226 232 231 234 233 229 233 237 236 242 235 250 260 258 260 263 259 263 234 202 206 234 261 143 147 186 235 230 297 331 293 324 299 290 340 328 315 320 318 335 338 352 340 333
177 179 180 182 179 189 188 193 196 198 198 203 209 209 210 146 92 171 167 143 128 136 148 131 287 295 265 265 203 208 217 196 190 197 203 197 206 218 227 223 222 232 235 235 247 260 318 329 324 320 283 254 246 251 268 275 265 252 231 239 235 207 215 235 172 168 180 231 287 244 273 283 250 298 306 334 290 218 257 318 327 308 321 314 315
166 179 182 182 181 190 189 188 197 205 206 206 213 210 205 130 167 166 141 155 169 180 176 185 196 229 215 219 234 208 37 357 302 240 207 195 197 195 208 212 225 230 232 237 228 59 59 0 319 289 272 264 240 249 222 255 251 258 252 222 216 174 176 136 88 45 357 286 232 292 287 289 315 284 292 334 335 332 260 247 299 311 319 309 265
158 158 166 175 164 155 139 130 132 141 128 140 170 171 152 126 169 176 171 173 165 174 186 193 199 208 219 214 216 79 143 185 232 344 276 224 196 202 214 215 216 227 260 303 56 87 127 196 240 266 272 259 269 296 287 244 233 254 265 167 146 147 144 155 177 183 266 351 303 267 294 304 285 297 315 313 308 288 290 11 273 289 300 316 305
140 141 150 162 158 150 137 132 127 123 132 137 138 127 118 138 158 171 169 174 183 178 182 189 202 185 167 110 105 127 93 115 1 336 344 246 191 210 219 230 217 211 211 245 132 175 170 198 251 274 328 30 42 23 19 2 290 222 208 186 183 174 216 252 272 233 227 269 265 265 293 289 287 290 285 282 294 303 318 326 322 311 322 310 297
142 121 102 49 195 148 137 137 130 126 133 131 133 125 126 134 143 149 144 156 170 169 174 183 188 173 165 144 121 95 90 24 354 326 346 325 257 195 208 219 212 213 219 202 185 228 219 221 219 347 21 18 25 13 9 23 25 60 80 96 115 155 205 239 262 218 214 229 254 273 260 274 286 292 289 293 301 300 293 304 295 315 332 333 319
60 88 101 93 331 259 143 139 129 131 132 132 124 108 118 124 133 138 137 135 135 134 132 142 147 139 128 117 110 111 93 11 351 346 343 330 245 205 195 193 221 226 210 227 192 165 152 159 120 81 38 27 25 14 2 9 16 34 85 115 160 161 178 192 225 231 212 246 274 264 251 266 281 303 302 310 311 317 308 308 292 305 316 317 303
99 83 90 80 77 52 6 15 120 128 138 138 122 108 111 111 111 115 121 128 117 107 111 103 92 89 107 114 106 93 88 13 1 360 353 343 325 260 195 195 191 156 137 137 131 129 130 110 82 40 16 23 20 6 12 358 357 8 12 18 2 264 233 250 247 250 283 246 241 281 270 266 291 302 326 326 317 301 318 326 317 323 310 309 293
151 135 107 114 127 105 89 39 341 69 135 130 129 124 119 117 117 116 116 109 111 106 100 99 100 98 99 100 98 81 58 353 349 354 351 340 325 299 232 169 126 128 138 135 125 123 121 125 119 79 23 27 14 4 3 1 355 6 12 8 4 357 3 28 37 28 355 253 250 248 278 30 288 274 313 325 359 342 331 312 319 322 321 298 291
129 125 121 131 139 128 116 118 141 297 67 108 121 125 125 120 117 120 116 118 117 119 119 117 111 110 106 104 100 82 25 357 339 342 337 339 329 286 286 126 120 115 106 99 100 99 100 101 104 99 52 27 19 1 359 348 342 360 17 8 352 10 54 51 31 16 14 8 300 257 286 271 231 282 278 315 10 296 265 263 283 300 288 281 285
136 138 142 154 154 140 130 141 153 177 136 116 112 114 118 124 127 125 114 100 92 89 78 89 103 98 94 96 91 71 36 7 352 344 337 334 323 17 78 115 116 107 97 94 88 89 101 107 111 101 68 36 8 356 350 322 339 8 8 354 350 41 71 71 57 32 21 356 321 328 307 2 31 10 4 350 345 338 324 304 322 354 352 351 341
147 146 146 153 148 134 123 103 71 38 86 117 120 120 120 115 108 114 109 110 107 93 92 88 83 84 79 75 80 65 31 4 358 351 340 330 346 62 104 112 113 111 109 107 104 102 94 97 101 103 74 40 10 349 344 351 36 19 2 349 339 52 22 358 355 357 2 350 346 155 137 166 179 122 39 38 17 345 3 16 4 345 347 342 331
129 131 131 138 141 136 122 108 98 148 122 111 109 109 107 106 97 112 114 117 106 104 105 98 92 100 103 93 80 77 50 14 10 8 10 358 332 129 137 126 131 125 114 92 96 97 106 101 94 87 93 63 7 357 353 13 46 26 17 358 13 36 4 353 344 348 358 16 60 92 88 52 29 45 44 22 1 5 24 7 331 335 338 336 329
113 120 117 111 104 107 112 117 125 134 92 84 89 93 92 100 100 95 99 102 104 104 102 100 102 92 91 93 88 83 59 28 22 23 32 26 25 42 119 138 135 140 130 110 84 80 65 67 79 79 84 72 45 27 8 17 50 24 5 24 35 28 356 337 340 351 357 17 36 35 34 24 21 15 17 14 8 12 3 352 342 351 350 346 350
110 102 92 83 85 86 99 123 128 132 128 120 107 104 107 95 93 97 92 95 105 100 98 95 94 77 64 70 67 60 59 41 27 32 38 37 29 37 14 96 142 140 140 134 114 97 83 78 75 76 63 69 56 43 31 18 38 7 346 66 36 4 340 330 325 360 31 54 48 40 39 30 25 20 19 17 15 20 25 22 23 21 27 24 17
106 99 89 84 85 103 118 131 123 113 115 109 93 81 81 105 106 103 100 94 97 97 100 102 96 92 78 70 70 52 56 52 35 34 43 48 47 52 47 32 4 44 44 63 60 68 33 23 37 54 28 11 358 18 42 351 307 284 220 261 1 321 328 323 1 53 61 54 49 42 36 27 24 18 19 15 18 14 20 21 23 27 29 29 14
92 93 91 91 98 94 87 75 94 103 105 111 109 98 90 90 88 96 104 111 111 108 104 97 93 87 72 67 57 41 52 59 48 38 38 50 57 58 59 31 46 77 58 37 28 17 7 5 337 17 3 349 339 340 338 342 286 257 278 306 318 306 266 46 56 60 58 54 48 42 33 25 17 18 18 16 11 8 11 8 7 12 14 34 32
79 83 89 94 95 96 97 100 98 102 108 109 109 104 91 87 85 83 87 92 98 113 116 113 104 96 87 62 45 53 45 54 58 55 44 45 48 60 65 64 53 64 71 61 40 20 309 321 324 347 341 326 321 320 329 338 354 29 355 0 33 80 79 71 66 63 57 54 50 45 32 25 17 11 17 12 0 358 357 359 359 4 1 359 3
96 94 87 90 95 99 102 98 96 94 105 101 99 103 97 94 97 107 107 117 131 140 117 127 125 122 107 85 62 41 43 43 57 67 58 51 48 51 55 53 45 74 71 56 4 342 323 328 319 316 310 309 310 316 344 12 11 25 59 69 72 67 67 63 56 54 54 46 40 31 24 14 13 12 12 354 350 344 345 359 1 1 1 354 356
84 85 83 81 81 78 81 92 98 98 96 106 110 107 107 114 120 129 130 139 149 147 146 144 131 124 106 97 81 69 52 54 46 46 53 61 49 41 40 46 42 41 45 17 358 347 312 296 290 297 310 319 317 326 19 42 59 73 70 67 62 56 53 53 50 47 46 39 35 30 21 13 9 8 352 346 347 358 5 358 357 359 356 357 359
89 102 105 99 95 96 91 80 80 89 90 80 96 114 129 127 126 127 131 156 159 152 153 142 129 116 119 124 104 68 57 50 46 39 30 37 43 35 37 34 42 43 55 13 332 313 320 325 339 351 358 12 36 71 74 71 77 76 74 67 63 60 56 56 50 53 49 37 35 29 11 1 1 355 3 3 5 5 358 355 353 355 3 6 8
91 99 113 117 107 95 96 88 76 67 76 84 77 71 72 92 91 93 101 114 109 117 116 124 131 139 141 127 102 82 56 46 43 36 24 27 25 17 18 19 15 20 18 359 355 354 337 341 335 336 63 59 64 69 75 76 71 64 58 60 62 70 66 68 66 65 54 43 33 20 1 354 348 7 4 360 357 351 354 354 355 349 359 360 21
90 77 90 110 118 112 104 107 96 64 46 57 66 62 50 70 92 88 99 108 118 96 101 100 113 131 132 122 116 99 74 55 32 41 30 27 15 7 16 13 14 7 354 349 337 328 332 336 27 69 70 60 54 55 56 63 73 76 70 61 56 52 62 68 71 65 60 52 37 9 3 360 360 352 353 354 352 346 352 357 4 357 5 5 30
103 104 96 106 113 103 92 98 106 100 92 73 57 45 31 37 85 105 56 10 63 118 116 103 104 104 116 127 128 119 117 117 145 134 85 81 28 354 13 9 354 354 338 320 320 343 7 32 46 52 61 72 68 61 61 68 65 64 72 66 60 61 57 61 61 51 38 41 26 17 2 349 336 344 355 353 351 353 358 12 18 19 18 27 36
110 122 116 104 102 109 117 119 121 124 122 121 112 88 65 62 21 50 69 26 26 4 57 134 152 128 107 59 19 142 157 157 118 122 125 32 336 358 12 356 338 320 322 310 300 12 22 39 53 72 73 74 73 71 70 74 82 77 63 61 59 58 58 63 70 47 31 31 19 13 351 345 339 347 356 4 0 16 22 32 25 22 29 20 20
124 133 129 147 140 137 138 134 136 128 132 128 123 118 110 56 52 46 42 43 26 16 32 78 100 122 123 124 66 46 72 101 129 106 57 348 331 308 302 300 302 304 320 1 38 33 19 31 28 62 78 89 98 102 94 86 87 90 78 66 56 56 57 61 36 33 24 14 0 353 352 3 352 356 14 14 32 31 30 26 25 23 24 12 15
140 149 155 153 137 138 145 146 141 132 129 127 126 125 118 105 65 46 50 38 33 36 28 34 66 87 110 122 132 74 57 103 102 83 74 4 341 342 317 282 296 304 311 288 44 28 17 21 6 5 122 110 119 110 99 94 90 92 91 70 44 32 43 32 301 36 6 2 353 353 6 3 8 14 24 30 40 38 25 23 17 15 12 10 10
149 168 170 139 143 149 145 145 149 146 144 138 130 129 127 130 115 84 17 35 51 48 35 34 46 63 79 75 71 159 163 128 119 94 7 351 341 325 285 264 345 352 2 49 34 13 15 345 324 312 260 141 130 108 103 104 101 95 100 93 61 24 25 8 12 29 18 10 19 24 24 23 20 33 39 36 37 33 25 21 8 10 11 6 1
159 158 151 135 128 131 137 139 141 156 155 150 155 151 158 146 149 147 124 86 24 36 63 53 46 53 47 63 119 97 95 111 108 64 6 305 296 309 332 344 75 27 71 39 20 5 345 9 329 309 249 125 112 109 104 100 98 99 92 80 77 70 58 49 51 42 44 43 50 44 38 34 33 40 37 33 28 30 27 17 7 10 4 355 348
154 158 145 135 139 144 144 137 137 139 140 153 166 171 174 172 164 156 161 165 170 168 184 151 51 26 34 78 77 98 110 115 132 157 196 282 331 325 323 35 26 358 12 16 33 34 41 36 33 35 27 53 57 65 75 72 75 76 79 82 72 67 58 60 64 61 60 57 55 48 44 41 37 39 39 34 25 21 17 13 5 1 357 349 346
150 151 136 133 134 138 138 145 141 131 130 139 155 146 152 162 178 181 189 192 176 159 152 169 134 91 19 46 98 98 87 71 54 21 3 357 348 353 43 15 33 15 19 26 45 50 56 57 61 54 52 57 54 55 57 66 63 64 55 70 72 67 65 65 70 73 69 67 63 58 51 45 34 34 31 38 33 19 9 13 4 358 360 352 348
134 129 125 138 140 132 139 143 144 145 138 115 92 82 79 107 161 182 188 198 191 186 150 138 129 93 354 163 125 68 64 57 38 346 341 9 343 36 107 121 88 8 42 51 53 58 58 48 53 61 59 64 60 60 62 63 59 65 67 64 71 72 71 74 79 82 79 74 65 59 57 50 35 30 36 34 23 14 6 5 358 352 351 345 343
168 158 146 149 145 146 141 150 163 145 132 121 112 105 95 103 135 147 169 189 203 161 140 167 167 170 170 209 180 166 163 245 279 293 280 251 4 29 30 52 111 103 87 80 71 65 63 47 48 56 48 52 50 38 46 41 38 51 61 63 63 70 79 81 83 82 81 78 72 62 62 52 39 30 27 35 14 2 359 347 344 336 333 331 329
192 185 171 159 157 159 159 157 157 150 153 149 178 174 202 202 235 165 139 133 136 154 169 175 182 187 191 188 160 167 121 58 84 335 345 346 44 44 62 75 85 88 82 72 65 63 63 58 51 55 50 46 45 43 45 44 44 47 58 72 71 60 65 73 77 75 71 66 59 55 54 49 35 24 11 5 2 352 341 330 324 320 318 314 310
198 205 184 170 163 163 162 165 167 169 178 185 204 217 241 240 207 202 161 129 155 179 174 177 189 196 176 172 162 154 144 162 176 210 228 332 2 36 82 85 83 87 88 76 71 72 69 63 60 60 55 50 50 51 44 49 47 57 68 74 79 72 62 63 67 71 71 66 58 44 38 34 33 19 358 348 356 343 329 320 319 313 306 306 305
199 201 202 192 173 161 167 169 175 183 191 189 196 196 212 224 222 203 139 128 88 122 157 174 177 157 164 171 161 156 147 163 195 188 43 33 64 80 74 73 76 72 66 70 69 71 73 69 60 61 60 59 55 53 52 52 59 67 73 77 76 77 67 58 57 60 60 59 55 44 28 21 28 17 352 332 342 331 315 313 314 313 312 312 314
179 193 201 194 186 177 184 191 192 203 195 203 200 205 215 217 196 163 158 130 121 122 116 104 103 111 136 146 154 157 148 174 117 78 66 73 73 72 70 65 62 67 66 64 70 79 77 76 70 67 68 58 57 55 57 61 70 83 86 85 85 86 82 75 72 66 65 55 42 36 14 11 12 8 342 340 331 321 317 317 313 315 313 315 315
183 190 199 197 196 199 201 209 184 193 201 210 203 196 180 167 178 178 164 133 136 135 136 135 140 136 138 114 101 90 99 113 110 110 98 87 86 82 80 77 73 70 70 65 59 73 83 86 82 74 78 75 71 71 73 87 107 105 100 99 96 95 96 92 82 65 48 38 18 10 358 347 353 342 315 334 326 321 312 316 314 313 309 305 299
221 212 203 201 207 215 221 209 211 208 208 207 193 176 160 142 133 125 132 135 145 148 151 156 158 156 147 92 83 111 115 122 123 110 99 93 95 97 96 94 88 80 71 69 69 77 84 85 85 71 58 58 60 71 76 76 105 120 120 116 112 105 103 105 103 100 80 24 348 348 309 354 349 329 327 337 325 322 315 311 313 307 308 300 303
224 212 203 206 206 205 215 214 214 216 212 214 202 201 170 157 164 155 143 132 139 153 160 162 161 155 144 159 155 127 119 105 96 93 97 102 101 102 105 98 93 91 85 78 72 77 78 79 83 76 59 31 44 68 84 87 88 103 123 126 124 124 134 138 146 156 155 203 295 328 340 359 322 308 313 321 325 316 312 307 305 308 307 306 314
196 202 204 197 198 203 207 211 207 197 199 203 200 202 187 170 168 162 150 144 135 146 154 156 155 159 155 125 106 107 108 104 100 102 102 102 104 105 105 105 96 91 88 88 80 75 82 90 89 87 82 64 74 94 104 103 105 104 101 113 122 146 160 156 162 148 168 233 301 351 347 337 320 327 334 326 318 311 306 304 305 310 320 321 318
220 220 209 203 207 202 210 208 203 199 196 200 195 183 180 180 174 167 146 134 137 137 139 143 143 132 117 118 117 114 111 108 110 107 109 113 112 112 107 100 95 85 78 74 76 75 79 81 116 133 118 105 104 112 129 131 118 114 108 118 146 146 143 143 130 96 29 46 47 23 301 291 307 311 312 312 306 311 312 312 320 324 323 319 317
201 219 227 218 208 205 204 201 202 197 186 191 193 190 184 183 180 172 144 140 133 132 124 117 117 122 120 120 123 122 117 117 117 119 117 116 121 120 116 109 110 113 100 74 57 52 46 32 354 356 69 74 87 111 134 142 136 135 150 168 175 176 163 143 145 148 212 97 324 280 271 304 303 296 301 304 304 307 315 318 324 319 316 317 319
237 232 225 221 218 214 201 197 194 193 193 191 194 194 191 182 178 178 155 148 144 140 136 135 138 138 137 141 138 134 131 128 127 131 131 134 130 133 133 133 128 131 123 137 148 197 317 348 12 111 119 121 109 125 143 152 164 170 173 192 187 159 147 148 167 206 214 282 259 283 298 301 297 300 302 306 307 303 304 307 314 314 315 314 315
242 249 254 251 238 229 219 204 195 192 184 184 194 197 201 185 168 153 153 145 140 142 146 145 145 146 143 141 139 139 137 137 141 140 139 141 145 145 137 132 137 143 151 153 163 18 17 26 101 115 147 161 141 134 159 160 169 178 185 185 182 174 171 186 194 196 202 228 244 261 256 275 283 288 290 290 294 305 302 306 313 315 317 314 307
220 222 229 233 246 255 246 240 235 215 203 194 198 188 171 160 153 153 153 153 150 152 145 142 138 137 137 143 140 140 138 138 134 137 140 137 121 106 111 120 123 130 191 289 39 68 104 113 135 159 206 204 181 154 165 172 175 185 191 181 184 189 198 201 205 217 217 222 240 247 254 259 279 291 294 293 296 292 309 315 313 308 308 313 314